Time,TemperatureF,DewpointF,PressureIn,WindDirection,WindDirectionDegrees,WindSpeedMPH,WindSpeedGustMPH,Humidity,HourlyPrecipIn,Conditions,Clouds,dailyrainin,SoftwareType,DateUTC
2013-02-20 00:05:00,49.0,-99.9,29.72,West,274,6.0,17.0,-999,-99.99,,,-99.99,,2013-02-20 08:05:00,
2013-02-20 00:11:00,48.0,-99.9,29.73,West,267,7.0,15.0,-999,-99.99,,,-99.99,,2013-02-20 08:11:00,
2013-02-20 00:22:00,48.0,-99.9,29.73,West,267,7.0,15.0,-999,-99.99,,,-99.99,,2013-02-20 08:22:00,
2013-02-20 00:32:00,48.0,-99.9,29.72,West,259,7.0,13.0,-999,-99.99,,,-99.99,,2013-02-20 08:32:00,
2013-02-20 00:40:00,48.0,-99.9,29.72,West,276,2.0,11.0,-999,-99.99,,,-99.99,,2013-02-20 08:40:00,
2013-02-20 00:42:00,48.0,-99.9,29.72,West,259,7.0,13.0,-999,-99.99,,,-99.99,,2013-02-20 08:42:00,
2013-02-20 00:52:00,48.0,-99.9,29.73,West,270,4.0,8.0,-999,-99.99,,,-99.99,,2013-02-20 08:52:00,
2013-02-20 01:02:00,48.0,-99.9,29.72,West,276,2.0,11.0,-999,-99.99,,,-99.99,,2013-02-20 09:02:00,
2013-02-20 01:11:00,48.0,-99.9,29.72,West,276,2.0,11.0,-999,-99.99,,,-99.99,,2013-02-20 09:11:00,
2013-02-20 01:22:00,48.0,-99.9,29.72,West,276,2.0,11.0,-999,-99.99,,,-99.99,,2013-02-20 09:22:00,
2013-02-20 01:32:00,48.0,-99.9,29.72,West,276,2.0,11.0,-999,-99.99,,,-99.99,,2013-02-20 09:32:00,
2013-02-20 02:01:00,47.0,-99.9,29.69,WNW,291,4.0,13.0,-999,-99.99,,,-99.99,,2013-02-20 10:01:00,
2013-02-20 02:12:00,47.0,-99.9,29.69,WNW,291,4.0,13.0,-999,-99.99,,,-99.99,,2013-02-20 10:12:00,
2013-02-20 02:22:00,47.0,-99.9,29.69,West,279,4.0,8.0,-999,-99.99,,,-99.99,,2013-02-20 10:22:00,
2013-02-20 02:32:00,47.0,-99.9,29.69,West,277,3.0,6.0,-999,-99.99,,,-99.99,,2013-02-20 10:32:00,
2013-02-20 02:42:00,47.0,-99.9,29.69,West,277,3.0,6.0,-999,-99.99,,,-99.99,,2013-02-20 10:42:00,
2013-02-20 02:52:00,46.0,-99.9,29.70,WNW,283,6.0,15.0,-999,-99.99,,,-99.99,,2013-02-20 10:52:00,
2013-02-20 03:02:00,46.0,-99.9,29.70,West,280,4.0,11.0,-999,-99.99,,,-99.99,,2013-02-20 11:02:00,
2013-02-20 03:11:00,46.0,-99.9,29.70,WNW,294,4.0,10.0,-999,-99.99,,,-99.99,,2013-02-20 11:11:00,
2013-02-20 03:20:00,47.0,-99.9,29.70,WNW,289,3.0,6.0,-999,-99.99,,,-99.99,,2013-02-20 11:20:00,
2013-02-20 03:22:00,46.0,-99.9,29.70,WNW,294,4.0,10.0,-999,-99.99,,,-99.99,,2013-02-20 11:22:00,
2013-02-20 03:32:00,47.0,-99.9,29.70,WNW,289,3.0,6.0,-999,-99.99,,,-99.99,,2013-02-20 11:32:00,
2013-02-20 03:42:00,47.0,-99.9,29.70,WNW,289,3.0,6.0,-999,-99.99,,,-99.99,,2013-02-20 11:42:00,
2013-02-20 03:52:00,47.0,-99.9,29.70,WNW,289,3.0,6.0,-999,-99.99,,,-99.99,,2013-02-20 11:52:00,
2013-02-20 04:02:00,47.0,-99.9,29.70,WNW,289,3.0,6.0,-999,-99.99,,,-99.99,,2013-02-20 12:02:00,
2013-02-20 04:12:00,47.0,-99.9,29.70,WNW,289,3.0,6.0,-999,-99.99,,,-99.99,,2013-02-20 12:12:00,
2013-02-20 05:02:00,45.0,-99.9,29.72,WNW,295,3.0,5.0,-999,-99.99,,,-99.99,,2013-02-20 13:02:00,
2013-02-20 05:12:00,45.0,-99.9,29.72,WNW,295,3.0,5.0,-999,-99.99,,,-99.99,,2013-02-20 13:12:00,
2013-02-20 05:22:00,45.0,-99.9,29.73,WNW,293,3.0,9.0,-999,-99.99,,,-99.99,,2013-02-20 13:22:00,
2013-02-20 05:32:00,45.0,-99.9,29.75,WNW,297,4.0,8.0,-999,-99.99,,,-99.99,,2013-02-20 13:32:00,
2013-02-20 05:42:00,45.0,-99.9,29.75,WNW,297,4.0,8.0,-999,-99.99,,,-99.99,,2013-02-20 13:42:00,
2013-02-20 05:52:00,44.0,-99.9,29.73,WNW,291,5.0,9.0,-999,-99.99,,,-99.99,,2013-02-20 13:52:00,
2013-02-20 06:01:00,44.0,-99.9,29.73,WNW,291,5.0,9.0,-999,-99.99,,,-99.99,,2013-02-20 14:01:00,
2013-02-20 06:11:00,44.0,-99.9,29.73,WNW,291,5.0,9.0,-999,-99.99,,,-99.99,,2013-02-20 14:11:00,
2013-02-20 06:22:00,44.0,-99.9,29.73,WNW,291,5.0,9.0,-999,-99.99,,,-99.99,,2013-02-20 14:22:00,
2013-02-20 06:32:00,44.0,-99.9,29.75,WNW,287,3.0,7.0,-999,-99.99,,,-99.99,,2013-02-20 14:32:00,
2013-02-20 06:42:00,44.0,-99.9,29.76,WNW,282,4.0,9.0,-999,-99.99,,,-99.99,,2013-02-20 14:42:00,
2013-02-20 06:52:00,44.0,-99.9,29.76,WNW,282,4.0,9.0,-999,-99.99,,,-99.99,,2013-02-20 14:52:00,
2013-02-20 07:02:00,43.0,-99.9,29.76,WNW,282,6.0,12.0,-999,-99.99,,,-99.99,,2013-02-20 15:02:00,
2013-02-20 07:12:00,43.0,-99.9,29.75,West,281,6.0,11.0,-999,-99.99,,,-99.99,,2013-02-20 15:12:00,
2013-02-20 07:22:00,43.0,-99.9,29.75,West,281,6.0,11.0,-999,-99.99,,,-99.99,,2013-02-20 15:22:00,
2013-02-20 07:32:00,43.0,-99.9,29.78,WNW,284,7.0,16.0,-999,-99.99,,,-99.99,,2013-02-20 15:32:00,
2013-02-20 07:42:00,44.0,-99.9,29.78,West,278,9.0,19.0,-999,-99.99,,,-99.99,,2013-02-20 15:42:00,
2013-02-20 07:52:00,44.0,-99.9,29.78,West,278,9.0,19.0,-999,-99.99,,,-99.99,,2013-02-20 15:52:00,
2013-02-20 08:01:00,44.0,-99.9,29.78,WNW,283,6.0,16.0,-999,-99.99,,,-99.99,,2013-02-20 16:01:00,
2013-02-20 08:12:00,44.0,-99.9,29.78,West,274,9.0,20.0,-999,-99.99,,,-99.99,,2013-02-20 16:12:00,
2013-02-20 08:22:00,44.0,-99.9,29.78,West,274,9.0,20.0,-999,-99.99,,,-99.99,,2013-02-20 16:22:00,
2013-02-20 08:32:00,45.0,-99.9,29.80,WNW,286,7.0,17.0,-999,-99.99,,,-99.99,,2013-02-20 16:32:00,
2013-02-20 08:42:00,45.0,-99.9,29.80,WNW,286,7.0,17.0,-999,-99.99,,,-99.99,,2013-02-20 16:42:00,
2013-02-20 08:52:00,45.0,-99.9,29.80,WNW,286,7.0,17.0,-999,-99.99,,,-99.99,,2013-02-20 16:52:00,
2013-02-20 09:01:00,46.0,-99.9,29.80,West,276,9.0,16.0,-999,-99.99,,,-99.99,,2013-02-20 17:01:00,
2013-02-20 09:11:00,46.0,-99.9,29.81,West,273,10.0,17.0,-999,-99.99,,,-99.99,,2013-02-20 17:11:00,
2013-02-20 09:21:00,46.0,-99.9,29.81,West,273,10.0,17.0,-999,-99.99,,,-99.99,,2013-02-20 17:21:00,
2013-02-20 09:32:00,47.0,-99.9,29.82,West,274,10.0,18.0,-999,-99.99,,,-99.99,,2013-02-20 17:32:00,
2013-02-20 09:42:00,48.0,-99.9,29.81,WNW,282,9.0,18.0,-999,-99.99,,,-99.99,,2013-02-20 17:42:00,
2013-02-20 09:52:00,48.0,-99.9,29.81,WNW,282,9.0,18.0,-999,-99.99,,,-99.99,,2013-02-20 17:52:00,
2013-02-20 10:02:00,48.0,-99.9,29.81,West,281,8.0,15.0,-999,-99.99,,,-99.99,,2013-02-20 18:02:00,
2013-02-20 10:11:00,49.0,-99.9,29.82,WNW,284,10.0,18.0,-999,-99.99,,,-99.99,,2013-02-20 18:11:00,
2013-02-20 10:22:00,49.0,-99.9,29.82,WNW,284,10.0,18.0,-999,-99.99,,,-99.99,,2013-02-20 18:22:00,
2013-02-20 10:32:00,50.0,-99.9,29.82,West,271,8.0,17.0,-999,-99.99,,,-99.99,,2013-02-20 18:32:00,
2013-02-20 10:42:00,50.0,-99.9,29.82,West,271,8.0,17.0,-999,-99.99,,,-99.99,,2013-02-20 18:42:00,
2013-02-20 10:52:00,51.0,-99.9,29.81,West,274,8.0,18.0,-999,-99.99,,,-99.99,,2013-02-20 18:52:00,
2013-02-20 11:01:00,52.0,-99.9,29.85,West,278,8.0,18.0,-999,-99.99,,,-99.99,,2013-02-20 19:01:00,
2013-02-20 11:12:00,52.0,-99.9,29.85,West,278,8.0,18.0,-999,-99.99,,,-99.99,,2013-02-20 19:12:00,
2013-02-20 11:21:00,52.0,-99.9,29.84,West,271,8.0,17.0,-999,-99.99,,,-99.99,,2013-02-20 19:21:00,
2013-02-20 11:32:00,54.0,-99.9,29.84,West,264,11.0,20.0,-999,-99.99,,,-99.99,,2013-02-20 19:32:00,
2013-02-20 11:42:00,54.0,-99.9,29.84,West,264,11.0,20.0,-999,-99.99,,,-99.99,,2013-02-20 19:42:00,
2013-02-20 11:52:00,54.0,-99.9,29.84,WSW,250,10.0,20.0,-999,-99.99,,,-99.99,,2013-02-20 19:52:00,
2013-02-20 12:01:00,55.0,-99.9,29.85,WSW,252,9.0,22.0,-999,-99.99,,,-99.99,,2013-02-20 20:01:00,
2013-02-20 12:11:00,55.0,-99.9,29.84,West,259,11.0,20.0,-999,-99.99,,,-99.99,,2013-02-20 20:11:00,
2013-02-20 12:21:00,55.0,-99.9,29.84,West,259,11.0,20.0,-999,-99.99,,,-99.99,,2013-02-20 20:21:00,
2013-02-20 12:31:00,56.0,-99.9,29.85,WSW,244,11.0,22.0,-999,-99.99,,,-99.99,,2013-02-20 20:31:00,
2013-02-20 12:41:00,56.0,-99.9,29.85,West,260,9.0,19.0,-999,-99.99,,,-99.99,,2013-02-20 20:41:00,
2013-02-20 12:52:00,56.0,-99.9,29.85,West,260,9.0,19.0,-999,-99.99,,,-99.99,,2013-02-20 20:52:00,
2013-02-20 13:01:00,57.0,-99.9,29.86,West,275,7.0,18.0,-999,-99.99,,,-99.99,,2013-02-20 21:01:00,
2013-02-20 13:11:00,57.0,-99.9,29.84,West,263,7.0,20.0,-999,-99.99,,,-99.99,,2013-02-20 21:11:00,
2013-02-20 13:21:00,57.0,-99.9,29.84,West,263,7.0,20.0,-999,-99.99,,,-99.99,,2013-02-20 21:21:00,
2013-02-20 13:32:00,57.0,-99.9,29.84,West,268,9.0,20.0,-999,-99.99,,,-99.99,,2013-02-20 21:32:00,
2013-02-20 13:42:00,57.0,-99.9,29.84,West,268,9.0,20.0,-999,-99.99,,,-99.99,,2013-02-20 21:42:00,
2013-02-20 13:52:00,58.0,-99.9,29.82,WSW,252,10.0,19.0,-999,-99.99,,,-99.99,,2013-02-20 21:52:00,
2013-02-20 14:02:00,59.0,-99.9,29.84,WSW,249,11.0,19.0,-999,-99.99,,,-99.99,,2013-02-20 22:02:00,
2013-02-20 14:11:00,59.0,-99.9,29.85,WSW,252,10.0,18.0,-999,-99.99,,,-99.99,,2013-02-20 22:11:00,
2013-02-20 14:21:00,59.0,-99.9,29.85,WSW,252,10.0,18.0,-999,-99.99,,,-99.99,,2013-02-20 22:21:00,
2013-02-20 14:32:00,59.0,-99.9,29.83,West,263,9.0,19.0,-999,-99.99,,,-99.99,,2013-02-20 22:32:00,
2013-02-20 14:43:00,59.0,-99.9,29.83,West,263,9.0,19.0,-999,-99.99,,,-99.99,,2013-02-20 22:43:00,
2013-02-20 14:52:00,59.0,-99.9,29.83,WSW,256,11.0,18.0,-999,-99.99,,,-99.99,,2013-02-20 22:52:00,
2013-02-20 15:01:00,59.0,-99.9,29.85,WSW,255,13.0,22.0,-999,-99.99,,,-99.99,,2013-02-20 23:01:00,
2013-02-20 15:12:00,59.0,-99.9,29.87,WSW,248,12.0,20.0,-999,-99.99,,,-99.99,,2013-02-20 23:12:00,
2013-02-20 15:22:00,59.0,-99.9,29.87,WSW,248,12.0,20.0,-999,-99.99,,,-99.99,,2013-02-20 23:22:00,
2013-02-20 15:32:00,59.0,-99.9,29.85,SW,236,11.0,19.0,-999,-99.99,,,-99.99,,2013-02-20 23:32:00,
2013-02-20 15:43:00,59.0,-99.9,29.85,SW,236,11.0,19.0,-999,-99.99,,,-99.99,,2013-02-20 23:43:00,
2013-02-20 15:53:00,59.0,-99.9,29.87,West,266,10.0,21.0,-999,-99.99,,,-99.99,,2013-02-20 23:53:00,
2013-02-20 16:03:00,59.0,-99.9,29.88,West,271,9.0,21.0,-999,-99.99,,,-99.99,,2013-02-21 00:03:00,
2013-02-20 16:11:00,59.0,-99.9,29.88,West,271,9.0,21.0,-999,-99.99,,,-99.99,,2013-02-21 00:11:00,
2013-02-20 16:22:00,59.0,-99.9,29.87,West,273,11.0,20.0,-999,-99.99,,,-99.99,,2013-02-21 00:22:00,
2013-02-20 16:32:00,59.0,-99.9,29.86,West,271,7.0,20.0,-999,-99.99,,,-99.99,,2013-02-21 00:32:00,
2013-02-20 16:42:00,58.0,-99.9,29.87,WSW,257,12.0,20.0,-999,-99.99,,,-99.99,,2013-02-21 00:42:00,
2013-02-20 16:52:00,58.0,-99.9,29.87,WSW,257,12.0,20.0,-999,-99.99,,,-99.99,,2013-02-21 00:52:00,
2013-02-20 17:01:00,58.0,-99.9,29.88,West,260,11.0,22.0,-999,-99.99,,,-99.99,,2013-02-21 01:01:00,
2013-02-20 17:12:00,58.0,-99.9,29.88,West,260,11.0,22.0,-999,-99.99,,,-99.99,,2013-02-21 01:12:00,
2013-02-20 17:22:00,58.0,-99.9,29.88,West,262,8.0,21.0,-999,-99.99,,,-99.99,,2013-02-21 01:22:00,
2013-02-20 17:32:00,57.0,-99.9,29.91,West,272,11.0,22.0,-999,-99.99,,,-99.99,,2013-02-21 01:32:00,
2013-02-20 17:42:00,57.0,-99.9,29.91,West,272,11.0,22.0,-999,-99.99,,,-99.99,,2013-02-21 01:42:00,
2013-02-20 17:52:00,56.0,-99.9,29.92,WSW,249,10.0,19.0,-999,-99.99,,,-99.99,,2013-02-21 01:52:00,
2013-02-20 18:02:00,56.0,-99.9,29.93,West,272,8.0,18.0,-999,-99.99,,,-99.99,,2013-02-21 02:02:00,
2013-02-20 18:11:00,56.0,-99.9,29.93,West,272,8.0,18.0,-999,-99.99,,,-99.99,,2013-02-21 02:11:00,
2013-02-20 18:22:00,56.0,-99.9,29.92,WSW,253,8.0,21.0,-999,-99.99,,,-99.99,,2013-02-21 02:22:00,
2013-02-20 18:32:00,56.0,-99.9,29.92,WSW,254,6.0,14.0,-999,-99.99,,,-99.99,,2013-02-21 02:32:00,
2013-02-20 18:42:00,56.0,-99.9,29.92,WSW,254,6.0,14.0,-999,-99.99,,,-99.99,,2013-02-21 02:42:00,
2013-02-20 18:52:00,56.0,-99.9,29.92,WSW,254,6.0,14.0,-999,-99.99,,,-99.99,,2013-02-21 02:52:00,
2013-02-20 19:02:00,55.0,-99.9,29.92,WSW,257,4.0,12.0,-999,-99.99,,,-99.99,,2013-02-21 03:02:00,
2013-02-20 19:12:00,55.0,-99.9,29.92,WSW,254,6.0,13.0,-999,-99.99,,,-99.99,,2013-02-21 03:12:00,
2013-02-20 19:22:00,55.0,-99.9,29.92,WSW,254,6.0,13.0,-999,-99.99,,,-99.99,,2013-02-21 03:22:00,
2013-02-20 19:32:00,55.0,-99.9,29.93,WSW,245,5.0,10.0,-999,-99.99,,,-99.99,,2013-02-21 03:32:00,
2013-02-20 19:42:00,55.0,-99.9,29.93,WSW,245,5.0,10.0,-999,-99.99,,,-99.99,,2013-02-21 03:42:00,
2013-02-20 19:52:00,55.0,-99.9,29.93,WSW,237,4.0,6.0,-999,-99.99,,,-99.99,,2013-02-21 03:52:00,
2013-02-20 20:01:00,55.0,-99.9,29.93,WSW,252,4.0,7.0,-999,-99.99,,,-99.99,,2013-02-21 04:01:00,
2013-02-20 20:11:00,55.0,-99.9,29.93,WSW,252,4.0,7.0,-999,-99.99,,,-99.99,,2013-02-21 04:11:00,
2013-02-20 20:22:00,55.0,-99.9,29.94,SW,235,4.0,7.0,-999,-99.99,,,-99.99,,2013-02-21 04:22:00,
2013-02-20 20:32:00,54.0,-99.9,29.96,WSW,240,3.0,7.0,-999,-99.99,,,-99.99,,2013-02-21 04:32:00,
2013-02-20 20:42:00,54.0,-99.9,29.96,WSW,240,3.0,7.0,-999,-99.99,,,-99.99,,2013-02-21 04:42:00,
2013-02-20 20:52:00,54.0,-99.9,29.96,West,263,4.0,8.0,-999,-99.99,,,-99.99,,2013-02-21 04:52:00,
2013-02-20 21:03:00,54.0,-99.9,29.95,West,272,4.0,8.0,-999,-99.99,,,-99.99,,2013-02-21 05:03:00,
2013-02-20 21:12:00,54.0,-99.9,29.95,West,272,4.0,8.0,-999,-99.99,,,-99.99,,2013-02-21 05:12:00,
2013-02-20 21:22:00,53.0,-99.9,29.95,SW,234,1.0,5.0,-999,-99.99,,,-99.99,,2013-02-21 05:22:00,
2013-02-20 21:37:00,54.0,-99.9,29.95,NNE,23,0.0,1.0,-999,-99.99,,,-99.99,,2013-02-21 05:37:00,
2013-02-20 21:47:00,54.0,-99.9,29.95,NNE,23,0.0,1.0,-999,-99.99,,,-99.99,,2013-02-21 05:47:00,
2013-02-20 22:01:00,53.0,-99.9,29.97,NNW,330,1.0,3.0,-999,-99.99,,,-99.99,,2013-02-21 06:01:00,
2013-02-20 22:02:00,53.0,-99.9,29.96,WSW,245,2.0,3.0,-999,-99.99,,,-99.99,,2013-02-21 06:02:00,
2013-02-20 22:11:00,53.0,-99.9,29.98,South,186,1.0,1.0,-999,-99.99,,,-99.99,,2013-02-21 06:11:00,
2013-02-20 22:21:00,53.0,-99.9,29.98,South,186,1.0,1.0,-999,-99.99,,,-99.99,,2013-02-21 06:21:00,
2013-02-20 22:31:00,53.0,-99.9,29.99,North,360,0.0,1.0,-999,-99.99,,,-99.99,,2013-02-21 06:31:00,
2013-02-20 22:42:00,52.0,-99.9,29.96,ESE,106,2.0,2.0,-999,-99.99,,,-99.99,,2013-02-21 06:42:00,
2013-02-20 22:50:00,52.0,-99.9,29.97,SSE,165,0.0,1.0,-999,-99.99,,,-99.99,,2013-02-21 06:50:00,
2013-02-20 22:52:00,52.0,-99.9,29.96,ESE,106,2.0,2.0,-999,-99.99,,,-99.99,,2013-02-21 06:52:00,
2013-02-20 23:01:00,52.0,-99.9,29.96,ENE,59,0.0,2.0,-999,-99.99,,,-99.99,,2013-02-21 07:01:00,
2013-02-20 23:11:00,52.0,-99.9,29.97,SSE,165,0.0,1.0,-999,-99.99,,,-99.99,,2013-02-21 07:11:00,
2013-02-20 23:22:00,52.0,-99.9,29.97,SSE,165,0.0,1.0,-999,-99.99,,,-99.99,,2013-02-21 07:22:00,
2013-02-20 23:32:00,52.0,-99.9,29.97,SSE,165,0.0,1.0,-999,-99.99,,,-99.99,,2013-02-21 07:32:00,
2013-02-20 23:42:00,52.0,-99.9,29.97,SSE,165,0.0,1.0,-999,-99.99,,,-99.99,,2013-02-21 07:42:00,